{"data":{"norad_id":54842,"epoch":"2026-05-25T04:41:08.226240Z","epoch_age_seconds":71954,"freshness":"FRESH","line1":"1 54842U 22177Y   26145.19523410  .00000203  00000+0  16894-4 0  9991","line2":"2 54842  43.0032  60.6011 0000918 252.9299 107.1452 15.27577596188660","mean_motion":15.27577596,"eccentricity":9.18e-5,"inclination_deg":43.0032,"raan_deg":60.6011,"arg_perigee_deg":252.9299,"mean_anomaly_deg":107.1452,"bstar":1.6894e-5,"rev_number":18866,"period_min":94.26689706439,"perigee_km":482.42643694549,"apogee_km":483.68615203436,"semimajor_km":6861.1932944899,"source":"CELESTRAK","updated_at":"2026-05-25T13:38:17.723889Z"}}